�������l�o���
Date,Time,MP-1(��Sv/h),MP-2(��Sv/h),MP-3(��Sv/h),MP-4(��Sv/h),MP-5(��Sv/h),MP-6(��Sv/h),MP-7(��Sv/h),MP-8(��Sv/h),����,����(m/s),���J
2020/06/12,00:00,0.701,1.002,0.635,1.241,0.882,0.403,0.699,0.653,�k��,2.3,��
2020/06/12,00:10,0.703,1.002,0.636,1.240,0.882,0.403,0.698,0.653,�k��,2.2,��
2020/06/12,00:20,0.702,1.003,0.635,1.240,0.885,0.404,0.697,0.654,�k��,4.0,��
2020/06/12,00:30,0.704,1.003,0.636,1.240,0.883,0.405,0.698,0.653,�k��,6.1,��
2020/06/12,00:40,0.703,1.003,0.636,1.242,0.882,0.404,0.699,0.653,�k��,5.0,��
2020/06/12,00:50,0.705,1.006,0.636,1.239,0.883,0.406,0.699,0.654,���k��,3.0,��
2020/06/12,01:00,0.705,1.004,0.636,1.240,0.883,0.405,0.698,0.654,�k��,2.3,��
2020/06/12,01:10,0.703,1.004,0.636,1.239,0.885,0.405,0.699,0.651,�k�k��,2.3,��
2020/06/12,01:20,0.705,1.001,0.637,1.239,0.885,0.404,0.699,0.653,�k,2.3,��
2020/06/12,01:30,0.704,1.001,0.638,1.241,0.885,0.404,0.698,0.652,�k�k��,2.2,��
2020/06/12,01:40,0.704,1.004,0.638,1.241,0.884,0.404,0.700,0.654,�k,2.6,��
2020/06/12,01:50,0.704,1.004,0.637,1.239,0.887,0.405,0.699,0.653,�k�k��,2.6,��
2020/06/12,02:00,0.704,1.003,0.636,1.239,0.885,0.403,0.698,0.654,-,CALM,��
2020/06/12,02:10,0.707,1.003,0.637,1.240,0.886,0.406,0.698,0.652,���k��,1.1,��
2020/06/12,02:20,0.706,1.005,0.639,1.239,0.884,0.404,0.700,0.653,��,0.9,��
2020/06/12,02:30,0.707,1.004,0.636,1.239,0.885,0.405,0.698,0.652,-,CALM,��
2020/06/12,02:40,0.704,1.005,0.636,1.239,0.885,0.404,0.701,0.654,�k�k��,0.9,��
2020/06/12,02:50,0.705,1.004,0.635,1.241,0.883,0.406,0.700,0.653,�k�k��,0.6,��
2020/06/12,03:00,0.703,1.003,0.637,1.240,0.886,0.405,0.700,0.652,���k��,0.8,��
2020/06/12,03:10,0.703,1.004,0.636,1.242,0.883,0.405,0.701,0.653,�쐼,0.9,��
2020/06/12,03:20,0.702,1.004,0.638,1.240,0.887,0.404,0.699,0.653,��쐼,1.2,��
2020/06/12,03:30,0.704,1.005,0.638,1.240,0.886,0.404,0.699,0.653,��쐼,1.2,��
2020/06/12,03:40,0.704,1.003,0.638,1.239,0.885,0.406,0.700,0.654,��,1.5,��
2020/06/12,03:50,0.705,1.002,0.636,1.239,0.887,0.404,0.700,0.652,��,1.7,��
2020/06/12,04:00,0.701,1.004,0.638,1.240,0.884,0.404,0.699,0.652,��쐼,2.6,��
2020/06/12,04:10,0.704,1.005,0.638,1.242,0.884,0.406,0.699,0.652,��,2.6,��
2020/06/12,04:20,0.703,1.007,0.637,1.239,0.886,0.405,0.701,0.654,��,2.9,��
2020/06/12,04:30,0.706,1.006,0.638,1.239,0.886,0.403,0.701,0.655,��쓌,2.2,��
2020/06/12,04:40,0.704,1.004,0.639,1.240,0.885,0.404,0.700,0.654,�쓌,1.7,��
2020/06/12,04:50,0.704,1.003,0.637,1.240,0.884,0.405,0.701,0.655,��쓌,1.7,��
2020/06/12,05:00,0.705,1.002,0.639,1.239,0.886,0.403,0.700,0.654,��쓌,1.2,��
2020/06/12,05:10,0.705,1.005,0.637,1.241,0.885,0.405,0.700,0.653,��,1.1,��
2020/06/12,05:20,0.707,1.004,0.637,1.240,0.884,0.404,0.699,0.652,-,CALM,��
2020/06/12,05:30,0.705,1.002,0.639,1.240,0.886,0.404,0.700,0.652,�k�k��,0.6,��
2020/06/12,05:40,0.704,1.003,0.636,1.243,0.884,0.403,0.701,0.653,�k�k��,1.7,��
2020/06/12,05:50,0.705,1.004,0.636,1.243,0.886,0.404,0.699,0.652,�k�k��,1.9,��
2020/06/12,06:00,0.704,1.004,0.636,1.241,0.885,0.404,0.699,0.652,�k,1.5,��
2020/06/12,06:10,0.706,1.002,0.635,1.240,0.884,0.403,0.701,0.653,�k�k��,1.2,��
2020/06/12,06:20,0.703,1.003,0.636,1.240,0.885,0.404,0.700,0.653,�k�k��,1.2,��
2020/06/12,06:30,0.706,1.001,0.636,1.241,0.887,0.404,0.701,0.654,�k,1.2,��
2020/06/12,06:40,0.705,1.003,0.638,1.239,0.884,0.404,0.699,0.654,�k,0.6,��
2020/06/12,06:50,0.705,1.004,0.635,1.238,0.885,0.403,0.700,0.653,�k,1.2,��
2020/06/12,07:00,0.705,1.002,0.635,1.239,0.885,0.403,0.699,0.653,�k,2.0,��
2020/06/12,07:10,0.707,1.003,0.634,1.241,0.885,0.403,0.701,0.652,�k�k��,2.0,��
2020/06/12,07:20,0.707,1.005,0.637,1.239,0.883,0.404,0.700,0.653,���k��,3.0,��
2020/06/12,07:30,0.708,1.002,0.638,1.243,0.889,0.405,0.701,0.651,���k��,1.5,��
2020/06/12,07:40,0.707,1.006,0.639,1.243,0.887,0.404,0.699,0.652,�k��,1.2,��
2020/06/12,07:50,0.706,1.007,0.638,1.243,0.887,0.403,0.699,0.651,�k�k��,1.7,��
2020/06/12,08:00,0.706,1.007,0.637,1.243,0.887,0.400,0.700,0.651,�k�k��,3.6,��
2020/06/12,08:10,0.706,1.009,0.638,1.243,0.886,0.400,0.701,0.650,�k,2.9,��
2020/06/12,08:20,0.707,1.007,0.640,1.242,0.888,0.401,0.701,0.651,�k,4.5,��
2020/06/12,08:30,0.704,1.003,0.638,1.240,0.886,0.401,0.700,0.651,�k�k��,4.7,��
2020/06/12,08:40,0.707,1.003,0.636,1.242,0.886,0.401,0.698,0.652,�k�k��,4.7,��
2020/06/12,08:50,0.707,1.005,0.634,1.243,0.885,0.402,0.699,0.652,�k��,4.6,��
2020/06/12,09:00,0.708,1.004,0.636,1.244,0.887,0.402,0.700,0.653,�k��,4.9,��
2020/06/12,09:10,0.707,1.002,0.639,1.242,0.887,0.403,0.699,0.653,�k��,4.6,��
2020/06/12,09:20,0.709,1.003,0.644,1.243,0.889,0.403,0.701,0.653,�k��,3.2,��
2020/06/12,09:30,0.707,1.006,0.641,1.242,0.889,0.402,0.698,0.652,���k��,2.8,��
2020/06/12,09:40,0.707,1.004,0.640,1.244,0.889,0.404,0.700,0.652,���k��,3.0,��
2020/06/12,09:50,0.705,1.004,0.640,1.246,0.891,0.403,0.702,0.651,���k��,2.8,��
2020/06/12,10:00,0.711,0.999,0.644,1.245,0.891,0.403,0.702,0.654,�k��,3.5,��
2020/06/12,10:10,0.709,1.003,0.646,1.245,0.891,0.403,0.702,0.653,�k��,3.3,��
2020/06/12,10:20,0.708,1.006,0.646,1.245,0.889,0.403,0.701,0.652,�k��,3.7,��
2020/06/12,10:30,0.709,1.006,0.644,1.246,0.891,0.402,0.700,0.653,�k��,3.6,��
2020/06/12,10:40,0.711,1.010,0.641,1.246,0.893,0.404,0.702,0.652,���k��,3.3,��
2020/06/12,10:50,0.710,1.009,0.642,1.246,0.892,0.402,0.700,0.653,���k��,3.8,��
2020/06/12,11:00,0.708,1.010,0.643,1.246,0.894,0.402,0.702,0.652,��,3.9,��
2020/06/12,11:10,0.709,1.007,0.641,1.242,0.893,0.404,0.702,0.651,��,3.1,��
2020/06/12,11:20,0.710,1.009,0.643,1.246,0.894,0.402,0.702,0.653,��,3.3,��
2020/06/12,11:30,0.709,1.009,0.640,1.244,0.895,0.402,0.704,0.652,��,3.8,��
2020/06/12,11:40,0.711,1.011,0.641,1.244,0.894,0.403,0.702,0.652,��,3.4,��
2020/06/12,11:50,0.710,1.013,0.642,1.244,0.892,0.403,0.703,0.652,��,2.2,��
2020/06/12,12:00,0.712,1.015,0.643,1.244,0.896,0.403,0.704,0.653,��,2.0,��
2020/06/12,12:10,0.714,1.014,0.643,1.245,0.896,0.403,0.702,0.655,��,2.0,��
2020/06/12,12:20,0.712,1.017,0.642,1.243,0.894,0.404,0.701,0.654,���쓌,2.9,��
2020/06/12,12:30,0.713,1.018,0.642,1.245,0.896,0.402,0.704,0.653,���쓌,1.9,��
2020/06/12,12:40,0.712,1.015,0.646,1.245,0.894,0.403,0.704,0.653,��,2.3,��
2020/06/12,12:50,0.713,1.017,0.648,1.245,0.899,0.404,0.703,0.654,���k��,2.3,��
2020/06/12,13:00,0.715,1.015,0.646,1.246,0.897,0.403,0.704,0.654,���쓌,2.3,��
2020/06/12,13:10,0.715,1.016,0.646,1.246,0.897,0.403,0.703,0.653,���쓌,2.2,��
2020/06/12,13:20,0.713,1.015,0.645,1.247,0.897,0.403,0.702,0.654,�쓌,2.3,��
2020/06/12,13:30,0.713,1.017,0.647,1.245,0.898,0.403,0.704,0.655,�쓌,1.7,��
2020/06/12,13:40,0.712,1.013,0.645,1.248,0.898,0.403,0.704,0.653,�쓌,2.6,��
2020/06/12,13:50,0.712,1.017,0.644,1.247,0.901,0.402,0.702,0.654,�쓌,2.9,��
2020/06/12,14:00,0.712,1.017,0.644,1.248,0.899,0.401,0.702,0.654,�쓌,2.8,��
2020/06/12,14:10,0.712,1.016,0.645,1.247,0.899,0.403,0.704,0.653,�쓌,4.6,��
2020/06/12,14:20,0.714,1.017,0.644,1.250,0.899,0.404,0.704,0.654,�쓌,5.2,��
2020/06/12,14:30,0.714,1.019,0.642,1.249,0.899,0.403,0.702,0.654,��쓌,3.9,��
2020/06/12,14:40,0.713,1.016,0.641,1.250,0.899,0.403,0.703,0.652,��쓌,4.1,��
2020/06/12,14:50,0.713,1.018,0.649,1.248,0.900,0.403,0.704,0.654,��쓌,5.5,��
2020/06/12,15:00,0.715,1.022,0.651,1.249,0.899,0.405,0.704,0.653,��쓌,5.2,��
2020/06/12,15:10,0.715,1.021,0.651,1.251,0.901,0.405,0.704,0.653,��쓌,5.6,��
2020/06/12,15:20,0.714,1.021,0.651,1.253,0.900,0.404,0.704,0.653,��쓌,5.5,��
2020/06/12,15:30,0.714,1.023,0.651,1.251,0.901,0.404,0.704,0.654,��쓌,6.8,��
2020/06/12,15:40,0.714,1.023,0.652,1.250,0.900,0.404,0.702,0.653,��쓌,5.5,��
2020/06/12,15:50,0.714,1.022,0.649,1.251,0.902,0.404,0.701,0.653,��쓌,5.9,��
2020/06/12,16:00,0.714,1.021,0.649,1.251,0.902,0.404,0.702,0.654,��,6.9,��
2020/06/12,16:10,0.713,1.025,0.650,1.252,0.901,0.405,0.703,0.653,��,6.1,��
2020/06/12,16:20,0.713,1.024,0.651,1.251,0.902,0.404,0.702,0.653,��,5.8,��
2020/06/12,16:30,0.714,1.024,0.649,1.251,0.902,0.404,0.701,0.654,��,5.5,��
2020/06/12,16:40,0.713,1.026,0.651,1.252,0.900,0.404,0.703,0.654,��쓌,5.1,��
2020/06/12,16:50,0.715,1.026,0.651,1.253,0.900,0.404,0.701,0.653,��,5.4,��
2020/06/12,17:00,0.713,1.024,0.649,1.251,0.901,0.405,0.701,0.652,��,6.9,��
2020/06/12,17:10,0.712,1.025,0.651,1.253,0.902,0.405,0.702,0.654,��,4.0,��
2020/06/12,17:20,0.714,1.023,0.651,1.249,0.900,0.404,0.701,0.653,��,3.7,��
2020/06/12,17:30,0.712,1.024,0.650,1.252,0.903,0.405,0.703,0.653,��,4.4,��
2020/06/12,17:40,0.713,1.023,0.650,1.252,0.903,0.405,0.702,0.652,��,4.4,��
2020/06/12,17:50,0.714,1.022,0.648,1.253,0.903,0.405,0.702,0.654,��,3.1,��
2020/06/12,18:00,0.713,1.024,0.651,1.252,0.903,0.406,0.702,0.654,��,2.6,��
2020/06/12,18:10,0.715,1.024,0.651,1.251,0.905,0.407,0.703,0.654,��쐼,2.3,��
2020/06/12,18:20,0.712,1.026,0.651,1.252,0.904,0.405,0.702,0.655,��,2.6,��
2020/06/12,18:30,0.716,1.026,0.654,1.253,0.902,0.407,0.703,0.654,��쓌,3.4,��
2020/06/12,18:40,0.716,1.024,0.653,1.254,0.899,0.408,0.703,0.654,��쓌,3.9,��
2020/06/12,18:50,0.715,1.027,0.652,1.253,0.903,0.406,0.702,0.657,��쓌,4.5,��
2020/06/12,19:00,0.716,1.028,0.653,1.255,0.902,0.406,0.703,0.655,��,4.2,��
2020/06/12,19:10,0.715,1.026,0.654,1.254,0.904,0.406,0.703,0.655,��,4.2,��
2020/06/12,19:20,0.716,1.026,0.653,1.253,0.903,0.405,0.704,0.658,��,3.6,��
2020/06/12,19:30,0.717,1.027,0.653,1.254,0.905,0.405,0.705,0.657,��,2.8,��
2020/06/12,19:40,0.718,1.026,0.654,1.256,0.903,0.407,0.702,0.656,��,2.9,��
2020/06/12,19:50,0.716,1.026,0.652,1.254,0.902,0.406,0.704,0.656,��,2.8,��
2020/06/12,20:00,0.714,1.027,0.651,1.255,0.903,0.406,0.703,0.656,��,3.5,��
2020/06/12,20:10,0.716,1.027,0.653,1.255,0.904,0.405,0.704,0.654,��,2.6,��
2020/06/12,20:20,0.716,1.028,0.656,1.257,0.902,0.407,0.701,0.656,��,2.6,��
2020/06/12,20:30,0.716,1.029,0.652,1.255,0.903,0.406,0.703,0.656,��쓌,2.6,��
2020/06/12,20:40,0.717,1.027,0.654,1.256,0.902,0.408,0.704,0.655,��,2.6,��
2020/06/12,20:50,0.717,1.027,0.653,1.256,0.903,0.406,0.703,0.656,��쐼,1.9,��
2020/06/12,21:00,0.717,1.027,0.653,1.254,0.903,0.406,0.703,0.656,��쐼,2.2,��
2020/06/12,21:10,0.715,1.029,0.654,1.257,0.904,0.406,0.705,0.657,���쐼,1.2,��
2020/06/12,21:20,0.714,1.025,0.654,1.254,0.905,0.407,0.705,0.656,���쐼,0.9,��
2020/06/12,21:30,0.716,1.028,0.654,1.254,0.903,0.406,0.704,0.657,���쐼,0.9,��
2020/06/12,21:40,0.715,1.028,0.655,1.255,0.905,0.408,0.704,0.656,�k��,0.6,��
2020/06/12,21:50,0.717,1.027,0.654,1.258,0.904,0.409,0.704,0.657,�k�k��,2.0,��
2020/06/12,22:00,0.717,1.028,0.655,1.255,0.905,0.406,0.704,0.657,�k,2.8,��
2020/06/12,22:10,0.718,1.028,0.654,1.257,0.905,0.407,0.703,0.657,�k�k��,4.0,��
2020/06/12,22:20,0.716,1.028,0.654,1.255,0.903,0.407,0.704,0.657,�k,3.1,��
2020/06/12,22:30,0.715,1.027,0.652,1.255,0.904,0.408,0.704,0.656,�k�k��,2.5,��
2020/06/12,22:40,0.716,1.029,0.655,1.259,0.904,0.406,0.705,0.656,�k�k��,3.8,��
2020/06/12,22:50,0.716,1.026,0.654,1.255,0.904,0.407,0.703,0.655,�k�k��,3.2,��
2020/06/12,23:00,0.714,1.028,0.655,1.255,0.903,0.407,0.704,0.657,�k�k��,3.7,��
2020/06/12,23:10,0.714,1.029,0.654,1.256,0.903,0.405,0.702,0.655,�k�k��,3.5,��
2020/06/12,23:20,0.717,1.028,0.654,1.256,0.903,0.407,0.705,0.656,�k�k��,2.8,��
2020/06/12,23:30,0.717,1.026,0.654,1.256,0.906,0.408,0.704,0.656,�k�k��,2.2,��
2020/06/12,23:40,0.717,1.027,0.655,1.258,0.905,0.408,0.704,0.657,�k��,2.2,��
2020/06/12,23:50,0.717,1.027,0.655,1.258,0.905,0.407,0.703,0.656,�k�k��,2.5,��
